Location: Saluda
(35.2377°N, 82.3468°W)
Time: 04:25:40
(UTC+00:00)

Vanguard 2 Rocket - Pass Details

Date: 04 October 2022
Orbit: 555 x 3321 km, 32.9° (Epoch: 05 December)

Event Time Altitude Azimuth Distance (km) Brightness Sun altitude
Rises 02:40:11 0° 231° (SW) 7,236 11.7 -42.2°
Reaches altitude 10° 02:45:32 10° 227° (SW) 6,052 11.2 -43.1°
Enters shadow 02:56:37 38° 205° (SSW) 3,619 9.7 -45.0°
Maximum altitude 03:02:32 52° 158° (SSE) 2,774 - -46.0°
Drops below altitude 10° 03:13:01 10° 86° (E) 3,879 - -47.7°
Sets 03:15:38 0° 81° (E) 4,560 - -48.1°
